Time,TemperatureF,DewpointF,PressureIn,WindDirection,WindDirectionDegrees,WindSpeedMPH,WindSpeedGustMPH,Humidity,HourlyPrecipIn,Conditions,Clouds,dailyrainin,SoftwareType,DateUTC
2013-02-13 00:21:00,29.0,8.0,30.40,ESE,120,1.0,3.0,41,0.00,,,-99.99,,2013-02-13 08:21:00,
2013-02-13 00:31:00,29.0,8.0,30.40,ESE,120,1.0,3.0,41,0.00,,,-99.99,,2013-02-13 08:31:00,
2013-02-13 00:43:00,29.0,8.0,30.40,ESE,120,1.0,3.0,41,0.00,,,-99.99,,2013-02-13 08:43:00,
2013-02-13 01:21:00,29.0,9.0,30.38,North,0,0.0,4.0,43,0.00,,,-99.99,,2013-02-13 09:21:00,
2013-02-13 01:31:00,29.0,9.0,30.38,North,0,0.0,4.0,43,0.00,,,-99.99,,2013-02-13 09:31:00,
2013-02-13 01:41:00,29.0,9.0,30.38,North,0,0.0,4.0,43,0.00,,,-99.99,,2013-02-13 09:41:00,
2013-02-13 02:21:00,29.0,10.0,30.37,ENE,60,2.0,4.0,45,0.00,,,-99.99,,2013-02-13 10:21:00,
2013-02-13 02:31:00,29.0,10.0,30.37,ENE,60,2.0,4.0,45,0.00,,,-99.99,,2013-02-13 10:31:00,
2013-02-13 02:41:00,29.0,10.0,30.37,ENE,60,2.0,4.0,45,0.00,,,-99.99,,2013-02-13 10:41:00,
2013-02-13 03:22:00,29.0,11.0,30.35,SE,130,2.0,3.0,46,0.00,,,-99.99,,2013-02-13 11:22:00,
2013-02-13 03:32:00,29.0,11.0,30.35,SE,130,2.0,3.0,46,0.00,,,-99.99,,2013-02-13 11:32:00,
2013-02-13 03:42:00,29.0,11.0,30.35,SE,130,2.0,3.0,46,0.00,,,-99.99,,2013-02-13 11:42:00,
2013-02-13 04:21:00,30.0,12.0,30.34,South,170,3.0,5.0,47,0.00,,,-99.99,,2013-02-13 12:21:00,
2013-02-13 04:32:00,30.0,12.0,30.34,South,170,3.0,5.0,47,0.00,,,-99.99,,2013-02-13 12:32:00,
2013-02-13 04:42:00,30.0,12.0,30.34,South,170,3.0,5.0,47,0.00,,,-99.99,,2013-02-13 12:42:00,
2013-02-13 05:21:00,30.0,12.0,30.34,North,0,0.0,4.0,47,0.00,,,-99.99,,2013-02-13 13:21:00,
2013-02-13 05:31:00,30.0,12.0,30.34,North,0,0.0,4.0,47,0.00,,,-99.99,,2013-02-13 13:31:00,
2013-02-13 05:41:00,30.0,12.0,30.34,North,0,0.0,4.0,47,0.00,,,-99.99,,2013-02-13 13:41:00,
2013-02-13 06:21:00,30.0,12.0,30.34,ENE,70,2.0,6.0,47,0.00,,,-99.99,,2013-02-13 14:21:00,
2013-02-13 06:31:00,30.0,12.0,30.34,ENE,70,2.0,6.0,47,0.00,,,-99.99,,2013-02-13 14:31:00,
2013-02-13 06:41:00,30.0,12.0,30.34,ENE,70,2.0,6.0,47,0.00,,,-99.99,,2013-02-13 14:41:00,
2013-02-13 07:21:00,29.0,12.0,30.34,ENE,60,1.0,1.0,49,0.00,,,-99.99,,2013-02-13 15:21:00,
2013-02-13 07:32:00,29.0,12.0,30.34,ENE,60,1.0,1.0,49,0.00,,,-99.99,,2013-02-13 15:32:00,
2013-02-13 07:42:00,29.0,12.0,30.34,ENE,60,1.0,1.0,49,0.00,,,-99.99,,2013-02-13 15:42:00,
2013-02-13 08:21:00,34.0,13.0,30.36,NNE,20,4.0,6.0,41,0.00,,,-99.99,,2013-02-13 16:21:00,
2013-02-13 08:31:00,34.0,13.0,30.36,NNE,20,4.0,6.0,41,0.00,,,-99.99,,2013-02-13 16:31:00,
2013-02-13 08:41:00,34.0,13.0,30.36,NNE,20,4.0,6.0,41,0.00,,,-99.99,,2013-02-13 16:41:00,
2013-02-13 09:21:00,37.0,13.0,30.35,NE,40,3.0,8.0,36,0.00,,,-99.99,,2013-02-13 17:21:00,
2013-02-13 09:31:00,37.0,13.0,30.35,NE,40,3.0,8.0,36,0.00,,,-99.99,,2013-02-13 17:31:00,
2013-02-13 09:41:00,37.0,13.0,30.35,NE,40,3.0,8.0,36,0.00,,,-99.99,,2013-02-13 17:41:00,
2013-02-13 10:22:00,39.0,12.0,30.35,NNE,30,2.0,6.0,32,0.00,,,-99.99,,2013-02-13 18:22:00,
2013-02-13 10:32:00,39.0,12.0,30.35,NNE,30,2.0,6.0,32,0.00,,,-99.99,,2013-02-13 18:32:00,
2013-02-13 10:41:00,39.0,12.0,30.35,NNE,30,2.0,6.0,32,0.00,,,-99.99,,2013-02-13 18:41:00,
2013-02-13 11:21:00,40.0,13.0,30.34,NE,40,3.0,9.0,32,0.00,,,-99.99,,2013-02-13 19:21:00,
2013-02-13 11:31:00,40.0,13.0,30.34,NE,40,3.0,9.0,32,0.00,,,-99.99,,2013-02-13 19:31:00,
2013-02-13 11:41:00,40.0,13.0,30.34,NE,40,3.0,9.0,32,0.00,,,-99.99,,2013-02-13 19:41:00,
2013-02-13 12:21:00,43.0,17.0,30.31,NE,40,2.0,6.0,35,0.00,,,-99.99,,2013-02-13 20:21:00,
2013-02-13 12:31:00,43.0,17.0,30.31,NE,40,2.0,6.0,35,0.00,,,-99.99,,2013-02-13 20:31:00,
2013-02-13 12:41:00,43.0,17.0,30.31,NE,40,2.0,6.0,35,0.00,,,-99.99,,2013-02-13 20:41:00,
2013-02-13 13:21:00,44.0,19.0,30.27,NNE,30,1.0,5.0,36,0.00,,,-99.99,,2013-02-13 21:21:00,
2013-02-13 13:31:00,44.0,19.0,30.27,NNE,30,1.0,5.0,36,0.00,,,-99.99,,2013-02-13 21:31:00,
2013-02-13 13:42:00,44.0,19.0,30.27,NNE,30,1.0,5.0,36,0.00,,,-99.99,,2013-02-13 21:42:00,
2013-02-13 14:21:00,44.0,19.0,30.25,North,0,0.0,5.0,36,0.00,,,-99.99,,2013-02-13 22:21:00,
2013-02-13 14:31:00,44.0,19.0,30.25,North,0,0.0,5.0,36,0.00,,,-99.99,,2013-02-13 22:31:00,
2013-02-13 14:42:00,44.0,19.0,30.25,North,0,0.0,5.0,36,0.00,,,-99.99,,2013-02-13 22:42:00,
2013-02-13 15:21:00,44.0,19.0,30.23,NNE,30,4.0,5.0,37,0.01,,,-99.99,,2013-02-13 23:21:00,
2013-02-13 15:32:00,44.0,19.0,30.23,NNE,30,4.0,5.0,37,0.01,,,-99.99,,2013-02-13 23:32:00,
2013-02-13 15:41:00,44.0,19.0,30.23,NNE,30,4.0,5.0,37,0.01,,,-99.99,,2013-02-13 23:41:00,
2013-02-13 16:21:00,43.0,19.0,30.23,ENE,60,2.0,4.0,38,0.00,,,-99.99,,2013-02-14 00:21:00,
2013-02-13 16:32:00,43.0,19.0,30.23,ENE,60,2.0,4.0,38,0.00,,,-99.99,,2013-02-14 00:32:00,
2013-02-13 16:42:00,43.0,19.0,30.23,ENE,60,2.0,4.0,38,0.00,,,-99.99,,2013-02-14 00:42:00,
2013-02-13 17:21:00,40.0,19.0,30.22,East,100,1.0,4.0,42,0.00,,,-99.99,,2013-02-14 01:21:00,
2013-02-13 17:31:00,40.0,19.0,30.22,East,100,1.0,4.0,42,0.00,,,-99.99,,2013-02-14 01:31:00,
2013-02-13 17:41:00,40.0,19.0,30.22,East,100,1.0,4.0,42,0.00,,,-99.99,,2013-02-14 01:41:00,
2013-02-13 18:21:00,36.0,18.0,30.23,North,-999,0.0,0.0,48,0.00,,,-99.99,,2013-02-14 02:21:00,
2013-02-13 18:31:00,36.0,18.0,30.23,North,-999,0.0,0.0,48,0.00,,,-99.99,,2013-02-14 02:31:00,
2013-02-13 18:41:00,36.0,18.0,30.23,North,-999,0.0,0.0,48,0.00,,,-99.99,,2013-02-14 02:41:00,
2013-02-13 19:21:00,35.0,18.0,30.23,North,0,0.0,1.0,50,0.00,,,-99.99,,2013-02-14 03:21:00,
2013-02-13 19:31:00,35.0,18.0,30.23,North,0,0.0,1.0,50,0.00,,,-99.99,,2013-02-14 03:31:00,
2013-02-13 19:42:00,35.0,18.0,30.23,North,0,0.0,1.0,50,0.00,,,-99.99,,2013-02-14 03:42:00,
2013-02-13 20:21:00,34.0,19.0,30.25,North,-999,0.0,0.0,54,0.00,,,-99.99,,2013-02-14 04:21:00,
2013-02-13 20:31:00,34.0,19.0,30.25,North,-999,0.0,0.0,54,0.00,,,-99.99,,2013-02-14 04:31:00,
2013-02-13 20:41:00,34.0,19.0,30.25,North,-999,0.0,0.0,54,0.00,,,-99.99,,2013-02-14 04:41:00,
2013-02-13 21:21:00,34.0,20.0,30.25,North,-999,0.0,0.0,55,0.00,,,-99.99,,2013-02-14 05:21:00,
2013-02-13 21:31:00,34.0,20.0,30.25,North,-999,0.0,0.0,55,0.00,,,-99.99,,2013-02-14 05:31:00,
2013-02-13 22:21:00,33.0,19.0,30.25,ESE,110,1.0,1.0,55,0.00,,,-99.99,,2013-02-14 06:21:00,
2013-02-13 22:31:00,33.0,19.0,30.25,ESE,110,1.0,1.0,55,0.00,,,-99.99,,2013-02-14 06:31:00,
2013-02-13 23:21:00,33.0,19.0,30.25,SE,130,1.0,3.0,55,0.00,,,-99.99,,2013-02-14 07:21:00,
2013-02-13 23:31:00,33.0,19.0,30.25,SE,130,1.0,3.0,55,0.00,,,-99.99,,2013-02-14 07:31:00,